Terminal Aerodrome Forecast
Issued by NWS Austin/San Antonio, TX

Home | Current Version | Previous Version | Text Only | Print | Product List | Glossary On
Versions: 1 2 3 4 5 6 7 8 9 10 11 12 13 14 15 16 17 18 19
031
FTUS44 KEWX 141455 AAD
TAFSAT
TAF AMD
KSAT 141455Z 1415/1518 18006KT 5SM BR OVC004
     FM141600 19010KT P6SM BKN009
     FM141700 18013G23KT P6SM SCT030 SCT250
     FM142300 15010KT P6SM FEW040 SCT250
     FM150600 17006KT 4SM BR OVC010
     FM151600 35010KT P6SM BKN015=

USA.gov is the U.S. government's official web portal to all federal, state and local government web resources and services.